| time (UTC) | temp F | wind direction | speed MPH | gust MPH | rain 1hr in | rain 24hr in | rain mn in | humidity % | barometer mb |
| 20260505083032 | 59 | 360 | 3.0 | 6.0 | 0.00 | 0.00 | 0.00 | 69 | 1012.1 |
| 20260505082517 | 59 | 360 | 2.0 | 9.0 | 0.00 | 0.00 | 0.00 | 69 | 1012.1 |
| 20260505082018 | 59 | 360 | 2.0 | 9.0 | 0.00 | 0.00 | 0.00 | 69 | 1012.1 |
| 20260505081532 | 59 | 360 | 3.0 | 8.0 | 0.00 | 0.00 | 0.00 | 69 | 1012.2 |
| 20260505081015 | 59 | 360 | 3.0 | 6.0 | 0.00 | 0.00 | 0.00 | 69 | 1012.0 |
| 20260505080517 | 60 | 360 | 2.0 | 9.0 | 0.00 | 0.00 | 0.00 | 69 | 1011.9 |
| 20260505080037 | 60 | 360 | 3.0 | 10.0 | 0.00 | 0.00 | 0.00 | 69 | 1011.9 |
| 20260505075517 | 60 | 360 | 3.0 | 10.0 | 0.00 | 0.00 | 0.00 | 69 | 1011.8 |
| 20260505075017 | 60 | 360 | 3.0 | 11.0 | 0.00 | 0.00 | 0.00 | 69 | 1011.8 |
| 20260505074535 | 60 | 360 | 4.0 | 11.0 | 0.00 | 0.00 | 0.00 | 69 | 1011.8 |
| 20260505074019 | 60 | 360 | 4.0 | 11.0 | 0.00 | 0.00 | 0.00 | 69 | 1011.9 |
| 20260505073517 | 60 | 360 | 4.0 | 10.0 | 0.00 | 0.00 | 0.00 | 70 | 1011.8 |
| 20260505073039 | 60 | 360 | 3.0 | 9.0 | 0.00 | 0.00 | 0.00 | 70 | 1011.7 |
| 20260505072517 | 60 | 360 | 3.0 | 11.0 | 0.00 | 0.00 | 0.00 | 70 | 1011.8 |
| 20260505072017 | 60 | 360 | 4.0 | 11.0 | 0.00 | 0.00 | 0.00 | 69 | 1011.9 |
| 20260505071542 | 60 | 360 | 4.0 | 8.0 | 0.00 | 0.00 | 0.00 | 69 | 1011.8 |
| 20260505071017 | 61 | 360 | 2.0 | 8.0 | 0.00 | 0.00 | 0.00 | 68 | 1011.6 |
| 20260505070517 | 61 | 360 | 3.0 | 8.0 | 0.00 | 0.00 | 0.00 | 68 | 1011.7 |
| 20260505070032 | 61 | 360 | 3.0 | 9.0 | 0.00 | 0.00 | 0.00 | 67 | 1011.6 |
| 20260505065517 | 61 | 360 | 4.0 | 9.0 | 0.00 | 0.00 | 0.00 | 67 | 1011.6 |
| 20260505065018 | 61 | 360 | 4.0 | 9.0 | 0.00 | 0.00 | 0.00 | 66 | 1011.6 |
| 20260505064535 | 62 | 360 | 4.0 | 9.0 | 0.00 | 0.00 | 0.00 | 66 | 1011.5 |
| 20260505064017 | 62 | 360 | 5.0 | 9.0 | 0.00 | 0.00 | 0.00 | 67 | 1011.6 |
| 20260505063517 | 62 | 360 | 4.0 | 9.0 | 0.00 | 0.00 | 0.00 | 67 | 1011.6 |
| 20260505063042 | 62 | 360 | 4.0 | 8.0 | 0.00 | 0.00 | 0.00 | 67 | 1011.6 |
| 20260505062517 | 62 | 360 | 4.0 | 6.0 | 0.00 | 0.00 | 0.00 | 67 | 1011.6 |
| 20260505062018 | 62 | 360 | 3.0 | 8.0 | 0.00 | 0.00 | 0.00 | 67 | 1011.5 |
| 20260505061538 | 62 | 360 | 3.0 | 8.0 | 0.00 | 0.00 | 0.00 | 66 | 1011.6 |
| 20260505061016 | 62 | 360 | 3.0 | 8.0 | 0.00 | 0.00 | 0.00 | 66 | 1011.5 |
| 20260505060515 | 62 | 360 | 2.0 | 8.0 | 0.00 | 0.00 | 0.00 | 66 | 1011.5 |
| 20260505060036 | 62 | 360 | 4.0 | 8.0 | 0.00 | 0.00 | 0.00 | 67 | 1011.5 |
| 20260505055518 | 62 | 360 | 2.0 | 8.0 | 0.00 | 0.00 | 0.00 | 67 | 1011.6 |
| 20260505055018 | 62 | 360 | 3.0 | 8.0 | 0.00 | 0.00 | 0.00 | 67 | 1011.5 |
| 20260505054544 | 62 | 360 | 3.0 | 8.0 | 0.00 | 0.00 | 0.00 | 67 | 1011.6 |
| 20260505054017 | 62 | 360 | 1.0 | 6.0 | 0.00 | 0.00 | 0.00 | 67 | 1011.6 |
| 20260505053517 | 62 | 360 | 2.0 | 9.0 | 0.00 | 0.00 | 0.00 | 67 | 1011.6 |
| 20260505053041 | 62 | 360 | 2.0 | 9.0 | 0.00 | 0.00 | 0.00 | 67 | 1011.5 |
| 20260505052517 | 62 | 360 | 2.0 | 8.0 | 0.00 | 0.00 | 0.00 | 67 | 1011.6 |
| 20260505052019 | 62 | 360 | 2.0 | 8.0 | 0.00 | 0.00 | 0.00 | 67 | 1011.6 |
| 20260505051539 | 62 | 360 | 1.0 | 6.0 | 0.00 | 0.00 | 0.00 | 67 | 1011.5 |
| 20260505051017 | 62 | 360 | 1.0 | 6.0 | 0.00 | 0.00 | 0.00 | 67 | 1011.5 |
| 20260505050517 | 62 | 360 | 2.0 | 6.0 | 0.00 | 0.00 | 0.00 | 67 | 1011.5 |
| 20260505041531 | 64 | 360 | 2.0 | 6.0 | 0.00 | 0.00 | 0.00 | 65 | 1011.6 |
| 20260505041020 | 64 | 360 | 2.0 | 5.0 | 0.00 | 0.00 | 0.00 | 64 | 1011.6 |
| 20260505040518 | 64 | 360 | 1.0 | 5.0 | 0.00 | 0.00 | 0.00 | 64 | 1011.6 |
| 20260505040038 | 64 | 360 | 2.0 | 5.0 | 0.00 | 0.00 | 0.00 | 64 | 1011.7 |
| 20260505035519 | 64 | 360 | 1.0 | 5.0 | 0.00 | 0.00 | 0.00 | 63 | 1011.6 |
| 20260505035017 | 65 | 0 | 1.0 | 5.0 | 0.00 | 0.00 | 0.00 | 63 | 1011.7 |
| 20260505034533 | 65 | 360 | 2.0 | 6.0 | 0.00 | 0.00 | 0.00 | 63 | 1011.6 |
| 20260505034017 | 65 | 360 | 2.0 | 6.0 | 0.00 | 0.00 | 0.00 | 62 | 1011.6 |
| 20260505033517 | 65 | 360 | 1.0 | 6.0 | 0.00 | 0.00 | 0.00 | 62 | 1011.7 |
| 20260505033032 | 65 | 0 | 2.0 | 6.0 | 0.00 | 0.00 | 0.00 | 62 | 1011.7 |
| 20260505032517 | 65 | 360 | 1.0 | 5.0 | 0.00 | 0.00 | 0.00 | 62 | 1011.7 |
| 20260505032018 | 65 | 360 | 2.0 | 8.0 | 0.00 | 0.00 | 0.00 | 62 | 1011.7 |
| 20260505031538 | 65 | 360 | 2.0 | 10.0 | 0.00 | 0.00 | 0.00 | 62 | 1011.8 |
| 20260505031020 | 65 | 360 | 5.0 | 10.0 | 0.00 | 0.00 | 0.00 | 62 | 1011.8 |
| 20260505030517 | 65 | 360 | 3.0 | 10.0 | 0.00 | 0.00 | 0.00 | 62 | 1011.8 |
| 20260505030034 | 66 | 360 | 2.0 | 10.0 | 0.00 | 0.00 | 0.00 | 61 | 1011.7 |
| 20260505025518 | 66 | 360 | 3.0 | 10.0 | 0.00 | 0.00 | 0.00 | 61 | 1011.9 |
| 20260505025018 | 65 | 360 | 3.0 | 10.0 | 0.00 | 0.00 | 0.00 | 61 | 1011.9 |
| 20260505024535 | 65 | 360 | 3.0 | 11.0 | 0.00 | 0.00 | 0.00 | 61 | 1011.9 |
| 20260505024017 | 65 | 360 | 3.0 | 11.0 | 0.00 | 0.00 | 0.00 | 61 | 1012.0 |
| 20260505023518 | 65 | 360 | 4.0 | 11.0 | 0.00 | 0.00 | 0.00 | 62 | 1012.0 |
| 20260505023037 | 65 | 360 | 2.0 | 11.0 | 0.00 | 0.00 | 0.00 | 62 | 1011.9 |
| 20260505022518 | 65 | 360 | 1.0 | 9.0 | 0.00 | 0.00 | 0.00 | 62 | 1011.8 |
| 20260505022018 | 65 | 360 | 4.0 | 9.0 | 0.00 | 0.00 | 0.00 | 62 | 1011.8 |
| 20260505021536 | 65 | 360 | 4.0 | 8.0 | 0.00 | 0.00 | 0.00 | 62 | 1011.8 |
| 20260505021017 | 65 | 360 | 1.0 | 6.0 | 0.00 | 0.00 | 0.00 | 62 | 1011.8 |
| 20260505020517 | 65 | 360 | 0.0 | 4.0 | 0.00 | 0.00 | 0.00 | 61 | 1011.8 |
| 20260505020037 | 65 | 360 | 1.0 | 6.0 | 0.00 | 0.00 | 0.00 | 61 | 1011.9 |
| 20260505015519 | 66 | 360 | 2.0 | 6.0 | 0.00 | 0.00 | 0.00 | 60 | 1011.9 |
| 20260505015019 | 66 | 360 | 3.0 | 6.0 | 0.00 | 0.00 | 0.00 | 60 | 1011.9 |
| 20260505014535 | 66 | 360 | 1.0 | 5.0 | 0.00 | 0.00 | 0.00 | 59 | 1011.8 |
| 20260505014017 | 66 | 360 | 2.0 | 5.0 | 0.00 | 0.00 | 0.00 | 59 | 1011.8 |
| 20260505013517 | 66 | 0 | 2.0 | 6.0 | 0.00 | 0.00 | 0.00 | 58 | 1011.8 |
| 20260505013034 | 67 | 360 | 1.0 | 6.0 | 0.00 | 0.00 | 0.00 | 57 | 1011.8 |
| 20260505012517 | 67 | 360 | 1.0 | 6.0 | 0.00 | 0.00 | 0.00 | 57 | 1011.5 |
| 20260505012018 | 67 | 360 | 1.0 | 5.0 | 0.00 | 0.00 | 0.00 | 56 | 1011.4 |
| 20260505011538 | 68 | 360 | 2.0 | 9.0 | 0.00 | 0.00 | 0.00 | 55 | 1011.4 |
| 20260505011018 | 68 | 360 | 2.0 | 9.0 | 0.00 | 0.00 | 0.00 | 55 | 1011.3 |
| 20260505010550 | 68 | 360 | 3.0 | 9.0 | 0.00 | 0.00 | 0.00 | 54 | 1011.1 |
| 20260505010101 | 68 | 360 | 1.0 | 10.0 | 0.00 | 0.00 | 0.00 | 53 | 1011.3 |
| 20260505005518 | 69 | 360 | 2.0 | 10.0 | 0.00 | 0.00 | 0.00 | 53 | 1011.3 |
| 20260505005018 | 69 | 360 | 2.0 | 9.0 | 0.00 | 0.00 | 0.00 | 52 | 1011.2 |
| 20260505004533 | 69 | 360 | 3.0 | 10.0 | 0.00 | 0.00 | 0.00 | 51 | 1011.1 |
| 20260505004018 | 70 | 360 | 3.0 | 13.0 | 0.00 | 0.00 | 0.00 | 51 | 1011.1 |
| 20260505003517 | 70 | 360 | 4.0 | 13.0 | 0.00 | 0.00 | 0.00 | 49 | 1011.1 |
| 20260505003041 | 70 | 360 | 5.0 | 12.0 | 0.00 | 0.00 | 0.00 | 48 | 1011.1 |
| 20260505002517 | 70 | 360 | 5.0 | 12.0 | 0.00 | 0.00 | 0.00 | 47 | 1011.1 |
| 20260505002018 | 70 | 360 | 3.0 | 12.0 | 0.00 | 0.00 | 0.00 | 47 | 1011.1 |
| 20260505001535 | 71 | 360 | 2.0 | 8.0 | 0.00 | 0.00 | 0.00 | 47 | 1011.1 |
| 20260505001018 | 71 | 360 | 2.0 | 8.0 | 0.00 | 0.00 | 0.00 | 46 | 1011.0 |
| 20260505000517 | 71 | 360 | 3.0 | 13.0 | 0.00 | 0.00 | 0.00 | 46 | 1011.0 |
| 20260505000043 | 71 | 360 | 3.0 | 13.0 | 0.00 | 0.00 | 0.00 | 46 | 1011.0 |
| 20260504235518 | 71 | 360 | 2.0 | 5.0 | 0.00 | 0.00 | 0.00 | 45 | 1011.1 |
| 20260504235018 | 72 | 360 | 1.0 | 6.0 | 0.00 | 0.00 | 0.00 | 45 | 1011.0 |
| 20260504234535 | 72 | 360 | 1.0 | 9.0 | 0.00 | 0.00 | 0.00 | 45 | 1010.8 |
| 20260504234021 | 72 | 360 | 2.0 | 9.0 | 0.00 | 0.00 | 0.00 | 44 | 1010.7 |
| 20260504233518 | 72 | 360 | 3.0 | 6.0 | 0.00 | 0.00 | 0.00 | 45 | 1010.7 |
| 20260504233036 | 72 | 360 | 1.0 | 9.0 | 0.00 | 0.00 | 0.00 | 45 | 1010.7 |
| 20260504232518 | 72 | 360 | 2.0 | 9.0 | 0.00 | 0.00 | 0.00 | 44 | 1010.8 |
| 20260504232017 | 72 | 360 | 1.0 | 8.0 | 0.00 | 0.00 | 0.00 | 44 | 1010.9 |
| 20260504231540 | 72 | 360 | 3.0 | 8.0 | 0.00 | 0.00 | 0.00 | 44 | 1010.9 |
| 20260504231017 | 73 | 360 | 2.0 | 10.0 | 0.00 | 0.00 | 0.00 | 43 | 1010.8 |
| 20260504230518 | 73 | 360 | 1.0 | 10.0 | 0.00 | 0.00 | 0.00 | 41 | 1010.9 |
| 20260504230040 | 73 | 360 | 3.0 | 11.0 | 0.00 | 0.00 | 0.00 | 41 | 1010.8 |
| 20260504225517 | 73 | 360 | 3.0 | 13.0 | 0.00 | 0.00 | 0.00 | 41 | 1010.6 |
| 20260504225018 | 73 | 360 | 4.0 | 13.0 | 0.00 | 0.00 | 0.00 | 41 | 1010.6 |
| 20260504224533 | 73 | 360 | 4.0 | 13.0 | 0.00 | 0.00 | 0.00 | 41 | 1010.6 |
| 20260504224019 | 73 | 360 | 2.0 | 14.0 | 0.00 | 0.00 | 0.00 | 42 | 1010.6 |
| 20260504223518 | 73 | 360 | 5.0 | 14.0 | 0.00 | 0.00 | 0.00 | 41 | 1010.6 |
| 20260504223037 | 74 | 360 | 3.0 | 14.0 | 0.00 | 0.00 | 0.00 | 41 | 1010.6 |
| 20260504222518 | 74 | 360 | 4.0 | 14.0 | 0.00 | 0.00 | 0.00 | 40 | 1010.6 |
| 20260504222018 | 74 | 360 | 4.0 | 14.0 | 0.00 | 0.00 | 0.00 | 40 | 1010.6 |
| 20260504221548 | 75 | 360 | 4.0 | 14.0 | 0.00 | 0.00 | 0.00 | 39 | 1010.6 |
| 20260504221018 | 75 | 360 | 4.0 | 14.0 | 0.00 | 0.00 | 0.00 | 39 | 1010.5 |
| 20260504220518 | 75 | 360 | 7.0 | 17.0 | 0.00 | 0.00 | 0.00 | 39 | 1010.6 |
| 20260504220035 | 75 | 360 | 7.0 | 17.0 | 0.00 | 0.00 | 0.00 | 39 | 1010.6 |
| 20260504215518 | 75 | 360 | 4.0 | 15.0 | 0.00 | 0.00 | 0.00 | 39 | 1010.5 |
| 20260504215020 | 75 | 360 | 8.0 | 15.0 | 0.00 | 0.00 | 0.00 | 38 | 1010.6 |
| 20260504214535 | 75 | 0 | 4.0 | 15.0 | 0.00 | 0.00 | 0.00 | 39 | 1010.6 |
| 20260504214017 | 75 | 360 | 6.0 | 15.0 | 0.00 | 0.00 | 0.00 | 39 | 1010.6 |
| 20260504213518 | 75 | 360 | 4.0 | 12.0 | 0.00 | 0.00 | 0.00 | 38 | 1010.5 |
| 20260504213047 | 76 | 360 | 5.0 | 13.0 | 0.00 | 0.00 | 0.00 | 39 | 1010.6 |
| 20260504212519 | 76 | 360 | 5.0 | 13.0 | 0.00 | 0.00 | 0.00 | 38 | 1010.5 |
| 20260504212017 | 76 | 360 | 3.0 | 11.0 | 0.00 | 0.00 | 0.00 | 37 | 1010.6 |
| 20260504211537 | 76 | 360 | 5.0 | 11.0 | 0.00 | 0.00 | 0.00 | 37 | 1010.5 |
| 20260504211018 | 76 | 360 | 4.0 | 11.0 | 0.00 | 0.00 | 0.00 | 38 | 1010.4 |
| 20260504210517 | 75 | 360 | 5.0 | 13.0 | 0.00 | 0.00 | 0.00 | 38 | 1010.4 |
| 20260504210034 | 75 | 360 | 4.0 | 14.0 | 0.00 | 0.00 | 0.00 | 37 | 1010.3 |
| 20260504205517 | 76 | 360 | 6.0 | 18.0 | 0.00 | 0.00 | 0.00 | 38 | 1010.4 |
| 20260504205018 | 76 | 360 | 8.0 | 18.0 | 0.00 | 0.00 | 0.00 | 36 | 1010.4 |
| 20260504204534 | 76 | 360 | 4.0 | 15.0 | 0.00 | 0.00 | 0.00 | 36 | 1010.4 |
| 20260504204018 | 76 | 360 | 5.0 | 14.0 | 0.00 | 0.00 | 0.00 | 36 | 1010.6 |
| 20260504203520 | 75 | 360 | 4.0 | 15.0 | 0.00 | 0.00 | 0.00 | 37 | 1010.5 |
| 20260504203046 | 75 | 360 | 4.0 | 15.0 | 0.00 | 0.00 | 0.00 | 37 | 1010.7 |
| 20260504202519 | 75 | 360 | 5.0 | 17.0 | 0.00 | 0.00 | 0.00 | 37 | 1010.7 |
| 20260504202018 | 75 | 360 | 6.0 | 18.0 | 0.00 | 0.00 | 0.00 | 36 | 1010.6 |
| 20260504201535 | 75 | 360 | 8.0 | 18.0 | 0.00 | 0.00 | 0.00 | 36 | 1010.7 |
| 20260504201017 | 75 | 360 | 5.0 | 14.0 | 0.00 | 0.00 | 0.00 | 37 | 1010.7 |
| 20260504200521 | 75 | 360 | 4.0 | 14.0 | 0.00 | 0.00 | 0.00 | 37 | 1010.8 |
| 20260504200035 | 75 | 360 | 6.0 | 15.0 | 0.00 | 0.00 | 0.00 | 38 | 1010.9 |
| 20260504195517 | 75 | 360 | 6.0 | 16.0 | 0.00 | 0.00 | 0.00 | 35 | 1011.0 |
| 20260504195018 | 75 | 360 | 7.0 | 23.0 | 0.00 | 0.00 | 0.00 | 36 | 1011.0 |
| 20260504194539 | 76 | 360 | 6.0 | 23.0 | 0.00 | 0.00 | 0.00 | 36 | 1011.0 |
| 20260504194018 | 76 | 360 | 5.0 | 23.0 | 0.00 | 0.00 | 0.00 | 35 | 1010.9 |
| 20260504193522 | 76 | 360 | 4.0 | 16.0 | 0.00 | 0.00 | 0.00 | 35 | 1011.1 |
| 20260504193034 | 76 | 360 | 5.0 | 14.0 | 0.00 | 0.00 | 0.00 | 34 | 1011.1 |
| 20260504192517 | 76 | 360 | 5.0 | 13.0 | 0.00 | 0.00 | 0.00 | 36 | 1011.2 |
| 20260504192018 | 76 | 360 | 6.0 | 15.0 | 0.00 | 0.00 | 0.00 | 36 | 1011.2 |
| 20260504191539 | 75 | 360 | 5.0 | 15.0 | 0.00 | 0.00 | 0.00 | 37 | 1011.3 |
| 20260504191018 | 75 | 360 | 7.0 | 17.0 | 0.00 | 0.00 | 0.00 | 35 | 1011.4 |
| 20260504190518 | 75 | 360 | 7.0 | 17.0 | 0.00 | 0.00 | 0.00 | 34 | 1011.4 |
| 20260504190037 | 75 | 360 | 3.0 | 15.0 | 0.00 | 0.00 | 0.00 | 36 | 1011.6 |
| 20260504185517 | 75 | 360 | 5.0 | 15.0 | 0.00 | 0.00 | 0.00 | 35 | 1011.6 |
| 20260504185017 | 75 | 360 | 6.0 | 20.0 | 0.00 | 0.00 | 0.00 | 36 | 1011.6 |
| 20260504184535 | 74 | 360 | 5.0 | 20.0 | 0.00 | 0.00 | 0.00 | 35 | 1011.8 |
| 20260504184018 | 75 | 360 | 6.0 | 20.0 | 0.00 | 0.00 | 0.00 | 34 | 1011.8 |
| 20260504183518 | 75 | 360 | 7.0 | 16.0 | 0.00 | 0.00 | 0.00 | 35 | 1011.8 |
| 20260504183032 | 74 | 360 | 5.0 | 16.0 | 0.00 | 0.00 | 0.00 | 35 | 1011.8 |
| 20260504182520 | 74 | 360 | 8.0 | 15.0 | 0.00 | 0.00 | 0.00 | 34 | 1011.9 |
| 20260504182018 | 74 | 360 | 4.0 | 12.0 | 0.00 | 0.00 | 0.00 | 35 | 1012.1 |
| 20260504181538 | 74 | 360 | 5.0 | 18.0 | 0.00 | 0.00 | 0.00 | 36 | 1012.1 |
| 20260504181020 | 73 | 360 | 6.0 | 18.0 | 0.00 | 0.00 | 0.00 | 37 | 1012.4 |
| 20260504180518 | 74 | 360 | 5.0 | 13.0 | 0.00 | 0.00 | 0.00 | 36 | 1012.4 |
| 20260504180035 | 74 | 360 | 7.0 | 13.0 | 0.00 | 0.00 | 0.00 | 35 | 1012.6 |
| 20260504175517 | 74 | 360 | 5.0 | 12.0 | 0.00 | 0.00 | 0.00 | 35 | 1012.6 |
| 20260504175018 | 73 | 360 | 3.0 | 14.0 | 0.00 | 0.00 | 0.00 | 36 | 1012.6 |
| 20260504174536 | 73 | 360 | 4.0 | 17.0 | 0.00 | 0.00 | 0.00 | 37 | 1012.7 |
| 20260504174018 | 73 | 360 | 7.0 | 17.0 | 0.00 | 0.00 | 0.00 | 36 | 1012.7 |
| 20260504173518 | 73 | 360 | 4.0 | 13.0 | 0.00 | 0.00 | 0.00 | 39 | 1012.7 |
| 20260504173036 | 73 | 360 | 5.0 | 13.0 | 0.00 | 0.00 | 0.00 | 37 | 1012.8 |
| 20260504172518 | 72 | 360 | 5.0 | 12.0 | 0.00 | 0.00 | 0.00 | 38 | 1012.9 |
| 20260504172017 | 72 | 360 | 3.0 | 12.0 | 0.00 | 0.00 | 0.00 | 38 | 1013.1 |
| 20260504171536 | 72 | 360 | 5.0 | 12.0 | 0.00 | 0.00 | 0.00 | 36 | 1013.2 |
| 20260504171018 | 72 | 360 | 5.0 | 12.0 | 0.00 | 0.00 | 0.00 | 36 | 1013.2 |
| 20260504170518 | 71 | 360 | 5.0 | 13.0 | 0.00 | 0.00 | 0.00 | 36 | 1013.0 |
| 20260504151018 | 67 | 360 | 3.0 | 10.0 | 0.00 | 0.00 | 0.00 | 41 | 1014.4 |
| 20260504150517 | 66 | 360 | 4.0 | 9.0 | 0.00 | 0.00 | 0.00 | 44 | 1014.5 |
| 20260504141018 | 63 | 360 | 3.0 | 8.0 | 0.00 | 0.00 | 0.00 | 45 | 1014.4 |
| 20260504140517 | 63 | 360 | 3.0 | 9.0 | 0.00 | 0.00 | 0.00 | 46 | 1014.6 |
| 20260504130517 | 56 | 0 | 2.0 | 8.0 | 0.00 | 0.00 | 0.00 | 58 | 1015.3 |
| 20260504110517 | 45 | 0 | 0.0 | 2.0 | 0.00 | 0.00 | 0.00 | 77 | 1015.8 |
| 20260504100516 | 47 | 360 | 1.0 | 2.0 | 0.00 | 0.00 | 0.00 | 74 | 1015.5 |